Wind_Gust
26 26 26 26 27 27 27 26 26 26 25 24 23 22 20 20 19 18 18 19 18 19 19 19 19 19 20 19 19 18 19 23 21 23 18 19 9 6 7 7 6 8 8 19 21 19 17 16 16 16 21 22 20 21 16 20 20 22 23 20 19 17 23 20 24 27 24 22 20 16 14 18 18 16 21 24 25 27 30 30 33 31 27 25 24 23 25 27
27 27 27 27 27 27 27 27 27 26 26 25 23 22 21 20 20 19 19 18 19 19 19 19 19 19 19 18 18 16 22 22 23 21 21 10 7 5 5 5 7 7 10 20 22 18 18 15 16 18 21 21 13 21 20 23 20 24 22 23 19 16 26 19 21 15 21 20 18 15 13 16 18 13 17 18 26 31 33 35 34 34 31 26 25 21 22 23
27 28 28 28 28 28 27 27 27 27 27 26 24 23 21 21 20 20 19 19 19 19 20 19 18 19 19 17 15 18 20 23 22 22 18 9 8 3 4 8 7 8 17 21 23 24 21 16 15 19 23 22 22 24 20 25 22 21 27 21 22 20 20 18 18 22 28 18 18 17 16 15 14 16 16 23 35 31 30 27 30 29 28 28 26 23 24 25
27 28 28 29 29 29 28 28 27 27 27 26 25 24 22 21 20 19 19 18 19 18 19 19 18 18 18 17 14 23 20 26 20 20 17 10 8 4 7 7 11 15 22 25 25 24 14 13 16 21 20 20 17 18 22 23 25 20 26 27 23 21 22 18 16 15 13 15 17 15 16 16 14 13 17 18 23 29 27 23 23 27 28 27 24 23 24 27
29 29 28 29 29 29 29 28 28 28 27 27 26 25 24 22 20 19 18 17 18 18 18 18 18 18 16 15 19 19 19 24 26 18 19 10 8 7 8 11 11 20 21 25 25 11 14 16 14 20 22 22 16 19 22 17 24 19 27 27 19 18 20 16 17 12 15 14 15 16 19 18 17 15 14 30 28 25 22 21 20 25 30 29 26 27 28 29
28 29 30 29 29 30 29 29 29 28 28 26 26 25 24 23 20 19 17 17 16 17 18 18 18 17 17 15 23 20 22 18 20 19 10 9 8 10 12 12 14 20 21 24 24 13 16 14 19 18 21 18 18 22 23 17 16 21 16 19 15 17 20 15 18 14 13 15 14 18 18 18 16 18 19 21 23 22 20 21 24 24 26 26 24 27 27 26
29 30 30 30 30 30 30 29 30 28 27 27 25 25 24 22 21 19 17 16 16 16 17 17 17 18 19 21 21 20 23 26 14 17 13 9 10 7 14 15 17 21 24 25 25 20 14 15 21 17 17 16 14 24 16 16 15 23 23 16 16 10 17 12 16 12 12 12 13 22 16 17 20 19 18 24 22 22 24 24 25 27 26 26 29 26 26 25
31 31 31 30 30 30 30 30 30 29 28 26 25 25 24 22 20 19 17 16 15 15 16 16 16 17 17 24 19 23 20 21 19 15 9 9 14 17 16 21 23 25 29 29 24 22 14 19 21 16 17 19 18 19 17 16 19 23 21 14 17 13 15 14 14 14 14 15 17 17 18 16 15 20 18 22 19 20 20 25 26 23 22 24 26 27 24 24
31 31 31 31 30 30 31 31 31 30 28 27 26 26 24 21 20 18 17 16 15 15 15 15 15 13 10 16 27 23 22 17 16 16 16 15 13 13 15 23 15 15 16 14 13 13 22 16 17 19 24 19 17 20 18 21 21 14 18 13 15 16 14 14 14 14 15 16 17 18 17 18 22 23 22 19 19 19 19 19 19 20 21 23 25 26 26 25
30 31 31 31 31 30 31 32 32 31 29 27 27 25 24 21 20 17 16 16 15 15 15 14 14 12 17 23 23 23 18 14 15 13 12 9 11 12 16 18 15 17 18 14 15 17 18 20 23 17 23 17 17 18 14 19 26 15 16 14 16 16 15 14 16 15 13 14 17 19 20 22 20 17 20 17 19 19 19 19 18 19 21 22 23 25 25 28
30 30 31 31 32 31 32 32 32 32 30 28 27 26 22 21 18 17 16 15 15 14 15 14 11 13 21 19 26 23 14 16 14 15 10 11 12 17 17 10 13 20 14 14 16 14 13 21 11 14 22 24 18 20 19 19 17 14 17 15 15 15 14 14 15 15 17 18 17 17 19 18 17 18 21 22 20 19 20 20 20 19 20 21 22 23 23 25
30 31 31 32 32 31 32 32 32 32 31 29 27 24 22 20 19 18 16 15 14 14 14 13 9 18 21 25 24 22 15 13 15 17 14 11 18 13 12 11 15 18 17 20 12 11 13 18 16 16 24 21 20 16 18 14 23 17 16 22 17 16 20 15 18 17 15 18 16 17 21 18 20 19 24 22 20 20 20 20 20 21 21 21 21 23 24 25
30 31 32 32 32 32 33 32 32 31 31 28 26 25 22 21 19 18 16 15 13 14 12 10 12 19 21 18 21 18 13 16 13 12 10 15 11 10 10 11 14 11 17 19 17 10 11 15 14 18 16 26 21 23 24 14 15 14 17 19 19 21 21 16 13 14 18 20 15 21 21 19 18 20 21 22 21 20 21 21 20 20 21 21 21 23 25 24
30 31 32 33 33 32 34 33 32 30 30 29 26 25 25 22 17 17 16 15 16 12 11 8 17 19 19 26 16 13 13 15 14 17 17 10 18 17 12 11 11 17 9 20 10 16 15 13 17 21 22 22 25 22 19 17 16 26 17 18 22 20 19 17 18 15 19 21 16 18 19 18 20 25 25 21 21 21 21 20 20 20 20 20 21 22 24 24
30 32 32 33 34 33 33 34 32 31 30 29 27 25 25 22 18 17 16 15 14 13 11 10 19 17 16 24 16 14 9 14 20 13 13 19 14 17 14 12 12 11 15 11 19 10 15 14 20 21 23 11 19 18 21 21 19 24 22 19 16 22 22 17 15 15 20 23 19 19 23 19 21 24 24 21 22 21 20 20 20 20 21 20 20 22 23 24
31 31 32 33 34 34 34 34 33 29 25 29 27 28 26 19 13 14 15 14 17 16 18 17 20 20 19 25 21 13 20 19 18 12 13 17 13 18 14 15 14 12 15 18 13 11 15 18 24 21 21 16 20 22 20 21 18 19 22 13 17 16 19 15 19 15 18 21 20 22 21 18 25 24 22 21 22 21 20 20 20 20 20 19 20 21 22 23
31 31 32 32 33 34 35 35 34 31 24 25 29 26 19 17 13 13 17 13 16 16 16 20 17 21 14 22 18 18 19 19 13 17 12 16 15 17 14 15 17 15 13 13 13 14 16 23 15 20 19 23 19 20 16 18 17 17 17 19 15 19 22 19 16 15 15 17 18 19 22 17 23 25 24 22 22 21 21 21 20 19 19 18 19 20 21 21
32 31 32 32 32 34 35 36 35 32 26 25 26 24 26 14 10 13 17 14 20 20 21 22 20 18 28 23 17 21 14 17 12 17 12 15 13 13 13 18 14 14 14 17 15 20 17 26 23 22 19 22 18 19 18 18 16 13 17 15 16 17 16 17 19 15 17 16 19 17 22 19 24 25 24 23 22 22 21 21 20 20 19 18 18 19 20 21
31 31 32 31 32 33 35 35 35 34 27 26 27 16 14 15 18 19 23 18 18 17 15 19 20 18 26 19 15 16 15 11 14 21 17 16 13 14 12 12 14 16 21 21 21 19 20 22 21 20 19 18 20 15 17 15 16 18 16 18 16 17 14 15 16 17 16 18 20 19 20 19 23 26 24 24 25 22 21 19 21 22 19 18 17 19 19 21
31 31 31 32 32 32 34 35 35 34 27 25 22 14 15 16 18 16 22 23 20 20 18 17 12 15 17 14 18 20 11 14 23 17 13 13 20 18 15 12 15 18 21 18 19 20 20 18 16 14 17 16 13 12 15 13 16 16 16 15 17 17 15 17 18 14 16 20 20 19 18 17 21 24 25 24 23 23 20 21 20 20 20 23 19 18 19 19
29 31 31 32 33 32 32 35 34 35 26 24 23 22 17 22 16 20 22 18 15 12 16 15 19 21 20 14 14 20 22 19 17 15 14 14 16 16 19 18 17 22 16 12 13 18 19 16 14 15 16 13 13 12 11 17 15 18 21 17 17 13 18 14 13 11 17 18 19 20 20 19 19 26 23 23 26 25 22 24 21 20 19 19 20 19 19 19
30 30 32 33 33 33 30 32 34 29 31 21 22 22 18 19 16 16 17 20 15 12 11 14 11 19 13 11 13 15 18 18 16 14 16 19 13 24 17 22 14 21 14 15 15 18 18 17 19 14 13 12 12 14 13 18 22 18 19 16 18 15 18 14 16 13 15 16 19 17 18 17 17 20 22 22 26 24 22 21 21 20 20 19 22 19 18 21
30 31 31 32 33 30 30 32 29 29 24 18 18 17 20 16 15 13 15 23 20 13 13 11 11 15 17 13 16 15 19 16 18 18 21 24 17 16 16 20 11 17 15 16 15 12 19 16 16 13 10 14 18 13 17 19 17 18 17 16 19 15 18 18 18 11 15 20 18 15 20 18 19 17 19 22 25 21 19 21 20 23 19 20 19 18 19 21
29 31 32 33 34 31 32 30 31 20 16 15 17 19 14 15 16 16 17 17 22 16 16 13 12 15 16 16 16 19 15 19 17 18 16 24 18 14 22 14 16 18 13 10 14 18 19 19 14 10 11 17 16 17 15 17 16 18 18 18 20 18 18 21 18 17 13 19 17 19 21 20 20 21 22 22 25 20 22 21 22 26 23 22 18 19 19 18
29 30 32 33 34 34 32 30 15 14 10 14 18 15 16 15 14 13 18 17 19 21 11 18 17 18 17 12 12 24 16 17 16 14 16 19 16 19 18 10 18 16 14 12 12 15 18 15 11 11 14 17 19 15 17 18 18 18 14 21 20 18 20 18 18 22 21 20 20 17 22 20 20 21 22 23 24 23 24 25 27 24 20 21 20 20 17 19
28 31 32 31 35 33 31 15 12 23 24 18 17 17 15 16 16 13 17 14 18 20 18 12 17 13 18 17 15 21 15 18 14 18 13 18 19 18 19 19 22 17 15 10 16 20 18 12 16 18 17 23 15 14 14 16 19 18 17 15 20 19 19 19 21 19 20 22 15 15 19 21 20 19 20 21 24 26 22 24 24 24 25 23 27 20 20 19
28 32 31 30 28 29 18 13 21 27 17 19 17 16 16 14 13 13 18 18 14 20 16 23 19 22 20 15 15 13 20 18 13 13 15 14 19 15 22 18 16 13 10 13 20 19 12 13 19 19 19 18 14 13 14 16 22 17 19 17 16 20 19 19 20 20 24 18 18 17 22 23 23 20 20 25 26 26 24 26 27 29 25 24 20 19 18 18
31 31 33 31 30 19 15 23 25 19 21 17 18 16 15 13 12 15 18 12 19 12 16 18 23 16 23 15 16 18 19 12 20 17 10 12 17 16 19 17 18 16 12 16 14 21 18 15 18 16 18 18 16 16 11 14 24 23 18 19 19 19 19 20 21 21 20 19 22 22 17 24 20 18 16 17 21 26 27 27 27 26 27 24 28 26 21 17
29 30 31 30 33 26 17 17 19 20 17 17 16 17 16 12 15 19 18 17 15 12 24 16 20 23 19 15 12 11 13 13 16 13 10 14 16 21 18 15 15 11 11 16 19 18 16 19 20 15 18 15 14 15 14 16 24 19 22 19 21 18 18 18 22 20 19 20 21 19 14 18 22 16 17 16 21 22 28 27 26 26 27 22 25 27 25 22
26 29 29 28 29 15 13 14 18 14 16 17 17 16 13 13 17 16 16 8 12 14 17 15 15 13 12 12 14 14 9 15 11 11 14 18 14 14 16 13 20 18 14 13 16 18 17 12 13 17 17 17 18 24 15 15 17 19 19 20 19 17 17 16 17 20 20 22 21 12 17 11 23 20 20 16 15 16 19 25 22 26 28 31 28 24 24 22
26 27 25 23 18 20 21 18 16 20 17 16 17 15 14 17 16 20 10 15 17 18 16 11 13 15 13 12 14 12 13 13 13 15 17 16 18 11 17 21 15 17 14 15 14 15 14 13 18 17 13 17 13 23 20 19 19 18 21 20 22 17 17 17 15 12 18 18 16 12 11 12 20 11 20 17 16 16 16 21 25 19 27 29 28 26 26 23
27 26 26 21 20 22 18 20 22 18 18 17 15 15 17 15 25 15 10 17 20 14 14 12 10 14 10 11 13 13 13 13 13 18 16 15 12 14 18 18 18 16 15 14 15 16 17 13 16 15 13 16 23 21 18 17 17 22 22 19 18 16 15 17 20 19 18 16 13 12 11 17 20 17 14 13 14 14 15 20 29 26 24 24 24 17 24 27
29 24 31 25 16 16 21 20 18 16 15 15 16 17 15 20 10 14 12 11 12 15 13 15 13 10 13 11 15 13 11 13 13 13 16 12 17 16 12 17 14 18 18 15 18 21 18 12 17 17 12 13 18 23 16 17 14 18 20 18 16 17 15 13 16 17 19 16 12 13 12 20 15 18 14 13 12 14 14 16 25 25 21 22 28 27 26 26
29 26 23 12 17 20 19 16 17 16 16 12 16 19 21 12 11 10 14 18 15 14 13 13 12 17 10 11 12 16 12 11 15 13 15 13 17 15 14 14 14 16 15 20 17 18 12 16 19 14 16 16 23 17 19 20 21 23 23 23 18 21 17 16 16 16 15 19 21 13 21 13 20 17 15 12 13 11 12 20 24 24 22 21 27 24 26 21
34 27 19 20 21 24 22 20 15 11 14 17 18 21 16 14 11 16 15 15 22 14 12 13 15 11 13 12 12 11 16 14 12 14 13 15 15 14 11 15 17 16 16 17 18 20 13 18 18 13 15 13 15 14 13 16 20 17 21 18 17 13 15 20 20 21 20 21 22 16 13 19 24 16 16 13 13 12 13 21 24 22 18 24 22 23 19 19
24 14 15 18 18 15 18 17 10 11 15 16 22 17 14 19 17 15 16 13 7 10 14 15 12 9 10 10 10 10 12 18 12 17 11 10 13 13 12 14 18 17 20 18 18 18 16 11 17 17 12 13 15 14 14 17 16 16 21 16 20 18 19 16 16 15 13 18 21 14 18 24 26 22 14 14 14 14 14 16 19 18 23 23 22 22 18 15
17 18 18 17 20 13 10 12 12 14 16 19 20 11 15 15 16 13 10 13 14 12 11 13 13 18 10 11 10 10 12 13 9 15 11 11 14 13 15 15 14 16 16 19 14 14 19 20 14 14 13 15 12 11 12 12 16 20 18 20 18 15 17 15 18 10 16 18 14 15 15 17 21 12 15 16 14 16 16 17 18 17 18 18 16 14 13 21
20 17 18 19 15 14 12 10 12 16 19 22 15 6 15 16 13 15 11 9 12 12 15 19 17 12 10 14 12 12 14 17 15 13 10 12 13 13 13 11 14 15 14 13 23 17 16 18 18 12 15 18 10 11 12 11 11 20 21 16 21 11 11 15 13 13 14 12 16 17 15 22 18 16 17 17 16 16 17 17 18 19 18 17 16 15 13 12
18 19 19 14 14 15 13 10 13 18 21 21 16 12 12 16 11 16 12 16 10 14 19 18 18 16 18 14 17 9 15 19 14 13 16 14 15 14 19 15 11 10 9 14 18 17 10 18 19 13 13 14 14 15 13 17 14 13 16 16 16 21 15 17 17 16 20 17 13 13 20 13 18 17 16 14 15 15 16 17 18 17 17 17 16 15 16 16
17 18 12 9 14 14 10 12 18 20 23 17 16 20 12 12 14 12 13 12 10 17 13 15 12 15 12 13 13 17 11 14 15 13 13 11 13 13 12 11 14 10 11 11 14 14 13 12 14 22 12 14 19 18 13 13 13 13 15 13 13 16 15 19 18 19 17 19 16 16 16 19 19 17 16 13 12 14 15 16 16 17 16 15 12 11 16 15
17 20 13 11 18 14 15 17 22 22 21 14 12 14 12 19 11 17 11 10 16 15 22 20 18 19 14 16 12 11 14 16 17 12 14 11 16 13 16 13 9 14 15 13 12 14 13 12 15 19 16 17 16 18 12 11 12 15 17 16 16 15 17 12 14 15 14 17 16 17 17 19 19 19 18 16 13 12 14 15 15 15 15 13 12 10 9 11
16 18 14 16 16 14 18 20 18 13 17 14 15 10 14 10 14 11 13 13 15 14 18 15 14 14 20 18 14 14 15 16 16 16 12 16 13 13 16 9 10 9 20 12 16 17 15 19 19 16 15 14 16 14 11 10 9 11 15 13 14 14 14 15 17 13 19 19 14 17 17 14 16 17 16 14 13 15 19 14 15 16 16 13 13 11 10 10
21 13 10 13 14 14 21 19 11 12 13 16 13 12 14 13 16 12 21 13 18 16 18 13 15 13 10 13 10 13 12 18 15 13 14 15 13 15 17 12 11 15 17 12 11 16 8 20 16 19 16 23 22 15 11 10 10 14 13 13 13 11 12 13 15 18 21 21 19 11 18 16 16 13 12 11 12 12 12 12 14 17 14 13 13 11 16 15
19 13 13 12 12 12 18 12 11 10 16 12 12 14 10 14 14 13 17 14 20 14 16 14 12 14 12 8 13 13 11 11 9 16 15 13 15 14 11 11 10 18 14 14 17 15 16 12 16 18 17 18 20 16 15 15 17 15 14 12 10 11 10 13 17 14 17 12 16 17 18 12 15 16 16 11 13 13 14 15 14 15 13 13 14 12 12 13
22 15 12 11 15 15 18 17 18 11 13 13 14 14 14 11 11 13 15 13 11 12 14 17 17 11 11 10 13 13 9 13 19 12 14 11 15 16 16 11 10 17 18 17 10 15 17 14 17 17 17 14 12 10 11 9 10 11 9 9 10 9 4 11 14 8 18 13 14 17 19 14 20 16 15 12 15 13 11 13 15 14 17 16 14 12 11 12
15 11 15 12 14 16 18 10 13 14 14 13 7 11 10 11 13 10 14 11 12 13 13 17 15 13 12 10 13 11 14 11 14 16 16 15 14 18 17 14 17 15 15 11 14 16 16 14 17 17 17 17 15 15 11 13 13 11 11 11 10 9 11 10 13 19 16 15 19 17 14 20 20 19 19 20 13 12 12 14 15 16 15 15 13 14 12 12
18 16 9 10 14 16 15 11 12 12 12 10 10 10 11 8 10 12 10 15 11 15 17 12 19 14 12 12 12 14 12 15 13 15 13 13 11 19 23 18 22 21 13 12 13 18 16 16 13 15 16 17 18 15 12 12 9 10 9 8 13 10 10 5 15 15 13 16 24 17 13 14 18 19 18 18 14 12 11 12 13 14 13 14 13 11 8 13
16 11 10 13 12 11 12 10 12 12 13 13 12 11 11 12 11 10 12 12 11 9 16 12 16 12 12 11 11 14 13 13 14 12 13 14 16 17 20 13 13 14 15 18 13 15 15 13 15 16 15 16 15 16 14 14 13 12 13 8 7 6 7 10 10 19 13 17 25 19 22 22 21 21 19 18 16 13 12 14 12 11 14 13 11 14 14 14
17 14 11 11 13 12 14 17 14 12 13 12 13 12 11 11 12 9 11 9 10 9 11 6 13 17 18 12 11 15 13 14 9 14 13 14 13 15 15 14 13 13 15 14 14 12 18 18 16 14 18 17 17 17 17 15 15 15 15 15 13 13 14 13 13 20 15 14 21 23 22 25 25 22 17 13 14 11 10 10 9 12 13 14 14 13 14 13
13 17 13 11 14 14 11 11 11 13 14 11 8 13 15 12 11 11 11 11 7 10 10 13 15 16 15 10 10 16 13 11 13 10 11 13 14 12 14 14 14 11 13 14 13 11 15 14 15 17 20 19 17 22 24 15 15 18 18 16 10 8 5 7 6 9 10 11 19 21 22 24 23 13 10 9 9 10 10 13 13 13 13 13 13 13 13 13
15 13 15 17 17 13 12 12 14 15 12 15 16 14 12 11 11 9 8 9 10 11 8 12 14 16 13 15 14 16 20 11 10 12 14 16 16 13 15 13 13 12 12 15 13 14 16 17 17 20 19 20 18 22 19 16 17 15 10 7 10 9 7 9 12 12 10 10 5 4 14 21 14 13 9 10 12 13 14 12 13 12 12 12 14 13 13 12
13 11 13 16 17 13 16 13 13 12 13 13 10 15 13 13 9 10 8 9 11 11 11 13 12 16 12 14 15 16 15 12 14 16 19 21 20 20 20 21 19 19 16 18 14 21 17 19 18 15 18 20 18 19 17 18 18 18 14 12 19 13 5 9 13 14 12 9 7 14 15 15 13 13 14 13 15 12 15 15 14 12 11 12 14 13 13 11
Wind_Speed
21 21 21 21 22 21 21 20 20 21 20 19 18 18 16 16 15 15 15 15 15 15 15 16 16 16 15 13 13 13 14 9 12 9 8 4 2 3 4 4 2 6 7 9 11 11 9 7 8 8 9 8 7 9 3 8 8 7 8 7 7 1 10 9 12 13 10 8 6 7 5 5 3 4 10 13 16 18 17 18 19 20 17 14 12 14 16 14
22 22 22 22 22 22 21 22 22 21 21 20 18 18 17 17 16 16 16 15 15 16 16 15 16 16 15 12 13 11 12 12 10 4 9 3 3 3 3 3 5 4 5 9 11 11 10 7 6 9 9 8 3 4 8 7 9 8 7 8 6 6 10 10 3 4 7 9 6 7 3 6 8 5 5 6 14 14 16 16 17 21 17 15 15 12 12 10
22 23 23 23 23 22 22 22 22 22 22 21 19 18 18 17 16 16 15 16 15 15 16 16 15 15 15 11 9 11 10 8 12 5 4 2 4 2 0 7 5 4 7 10 12 15 10 5 6 9 9 7 4 4 6 6 6 5 8 8 2 9 10 10 10 13 13 9 8 1 6 6 7 6 5 11 14 13 13 12 14 16 19 18 16 13 11 11
22 22 22 23 23 23 23 22 22 22 22 21 20 19 18 18 17 15 15 15 15 15 15 15 15 14 14 12 9 11 8 11 1 9 7 6 3 3 6 6 9 9 9 12 15 14 6 5 9 7 9 9 5 4 7 6 8 9 5 11 5 5 3 8 7 8 5 6 4 4 6 2 4 3 5 6 13 17 12 9 13 17 18 17 15 13 12 11
23 23 23 23 23 24 23 22 22 22 21 21 20 20 19 18 17 15 14 14 14 14 14 14 14 13 13 11 12 9 9 6 9 7 5 6 6 6 7 10 9 10 11 12 15 2 5 4 5 9 9 5 0 5 10 5 6 8 8 12 10 5 5 2 6 5 8 8 6 6 7 3 6 1 6 21 14 5 10 12 12 17 20 19 15 15 14 14
22 23 24 23 23 23 23 23 22 22 23 21 21 20 19 19 17 15 14 13 13 13 14 13 12 12 11 12 11 8 6 4 4 7 6 6 6 8 10 9 12 10 11 14 13 3 8 5 10 7 6 4 4 9 9 5 4 5 6 8 6 6 7 6 3 4 2 1 2 7 4 7 1 9 9 9 9 9 12 14 15 16 18 17 15 15 14 14
23 23 24 23 23 24 24 23 23 22 21 22 20 21 20 19 17 15 14 12 12 12 13 12 11 11 12 15 8 7 8 7 6 5 7 7 9 6 12 12 11 10 13 14 15 10 4 7 5 8 6 3 6 6 8 3 5 10 6 4 6 4 6 5 8 2 5 5 3 11 3 4 8 3 9 10 10 14 16 16 17 18 17 17 17 14 14 13
23 23 24 24 23 24 24 24 24 23 22 21 20 20 20 18 16 15 14 13 12 11 11 11 11 10 10 9 7 8 7 9 8 8 6 4 9 12 12 13 14 15 18 17 13 12 7 10 9 4 7 6 5 6 5 6 4 11 8 2 5 7 6 2 2 6 6 4 6 5 2 3 4 8 6 8 10 10 14 16 17 15 14 14 17 16 15 15
23 23 23 24 24 24 25 25 24 23 23 22 21 21 20 17 16 15 14 13 12 11 9 10 10 9 5 4 7 10 9 7 9 8 8 7 6 6 7 11 6 9 6 2 4 5 3 6 8 3 11 7 6 3 2 8 8 6 6 4 6 6 4 3 3 2 2 3 1 5 4 10 10 6 7 9 8 9 10 12 12 13 14 13 15 16 15 14
23 23 24 24 24 24 25 25 25 25 23 22 22 20 20 17 16 14 13 13 12 9 9 8 9 8 8 7 8 7 7 6 6 6 6 2 4 4 10 9 7 10 9 5 8 8 7 7 5 4 10 5 3 4 7 2 5 6 7 4 7 8 5 4 6 4 2 4 5 9 9 6 8 4 6 5 8 7 8 10 10 11 12 12 13 15 15 16
24 24 24 24 25 24 25 25 25 25 23 23 22 21 18 17 15 14 13 12 12 8 7 7 5 8 8 7 11 4 4 8 5 5 4 3 4 7 9 2 7 10 7 4 6 2 7 13 3 3 9 8 8 8 7 5 6 3 8 5 4 3 6 5 8 7 4 5 5 3 4 6 6 4 5 8 7 7 8 8 9 8 8 11 11 12 14 14
24 24 25 25 24 25 26 25 25 25 24 23 22 20 18 16 16 15 14 12 12 8 5 5 4 5 7 11 3 6 7 5 5 7 6 3 9 5 6 4 8 10 6 11 2 2 5 10 5 7 5 1 4 6 7 1 10 6 2 6 6 3 5 5 5 4 5 5 6 5 4 5 8 9 12 9 6 7 7 7 8 9 8 9 10 10 11 12
23 24 25 25 25 25 26 25 24 24 25 23 22 20 19 17 16 15 13 13 8 7 5 3 6 5 6 3 7 3 4 7 4 4 3 5 4 3 4 3 8 4 7 7 9 2 4 8 6 10 7 4 5 3 9 2 6 1 5 8 6 5 7 6 5 5 5 7 5 4 7 4 6 8 7 8 6 7 7 6 6 7 8 7 9 10 11 12
24 24 25 25 25 25 26 25 25 24 24 23 21 21 20 18 14 14 13 12 13 10 5 3 4 7 7 5 3 0 5 7 7 9 6 2 4 7 2 3 3 6 3 10 1 7 5 4 8 9 11 3 4 8 9 4 5 6 5 5 4 3 5 5 3 9 5 10 6 4 7 4 9 10 10 3 7 8 7 6 7 7 8 9 9 9 11 12
24 24 24 25 25 25 25 26 25 23 23 24 22 21 21 18 14 14 13 11 10 7 9 5 6 5 4 8 4 4 7 7 9 1 5 6 5 7 6 3 4 3 7 2 8 2 6 6 9 9 5 3 6 4 3 6 4 6 5 6 5 5 7 9 5 2 6 8 7 5 8 3 9 10 6 0 8 9 7 7 6 6 7 8 8 10 10 11
24 24 25 25 25 25 25 26 25 20 20 23 22 23 22 16 11 12 12 10 14 13 9 8 6 7 8 7 7 7 5 10 6 2 6 10 2 7 6 8 7 4 5 9 2 3 4 9 8 8 8 5 7 5 5 2 4 4 3 4 7 5 5 5 8 6 9 9 7 8 6 8 8 11 9 8 10 8 8 7 7 7 8 9 8 7 8 10
24 23 24 24 25 25 26 26 26 22 19 20 23 21 16 14 12 11 14 11 7 7 5 6 8 9 3 6 5 7 3 8 3 5 5 6 8 9 3 7 7 6 4 2 3 3 6 6 4 7 7 8 3 8 3 6 4 3 4 5 6 6 4 6 2 5 4 4 8 10 8 5 10 11 8 7 9 9 10 8 7 4 9 6 8 7 8 8
23 24 24 24 24 25 26 27 27 23 19 21 21 20 15 13 8 11 13 7 7 7 8 9 8 7 4 8 4 8 4 5 3 7 4 7 5 5 3 8 3 5 3 3 4 7 5 5 4 6 4 7 6 3 4 2 2 4 8 4 3 7 8 9 7 6 8 8 8 3 8 10 12 12 12 11 11 11 8 9 10 6 2 9 7 8 6 7
23 23 24 23 23 24 26 26 27 23 20 19 21 14 11 11 7 8 9 5 4 4 4 6 6 4 9 7 4 5 6 2 6 8 6 5 3 5 2 2 5 3 9 4 5 7 6 6 6 2 3 5 1 6 4 3 2 9 8 8 3 6 6 6 3 4 3 6 8 9 7 7 12 13 11 13 10 6 9 3 10 6 4 4 2 7 7 7
23 23 23 24 23 23 25 26 26 23 20 16 10 5 4 3 3 4 8 9 9 8 5 8 1 6 6 3 8 9 3 8 9 7 4 6 7 9 6 4 5 7 5 7 3 5 7 2 5 4 4 6 4 2 4 6 6 8 5 7 6 5 6 5 7 6 8 5 7 9 8 8 12 11 12 11 9 7 3 9 8 9 5 3 6 8 7 8
23 24 24 25 25 25 25 26 25 25 17 10 8 6 3 6 3 1 10 1 7 3 7 5 9 12 9 3 6 9 7 7 7 6 7 5 6 8 2 7 4 5 0 4 5 7 6 3 4 4 6 4 5 3 3 6 7 8 7 8 7 3 6 1 3 2 5 6 7 9 12 5 8 12 12 12 10 9 3 7 8 9 8 6 11 3 9 9
22 24 25 26 25 25 24 24 27 23 22 7 5 5 8 7 4 6 5 0 5 4 4 5 4 10 2 4 5 6 2 0 3 6 7 6 5 7 6 6 1 8 3 7 4 3 2 3 6 6 3 5 4 5 5 5 7 7 5 5 4 4 5 4 6 4 3 3 5 9 7 5 6 10 13 10 10 6 5 8 8 9 7 4 8 8 4 7
21 24 25 25 26 24 23 24 22 23 9 6 2 9 6 7 6 5 6 5 6 4 3 2 4 8 7 4 7 4 8 4 4 7 9 8 9 2 5 7 1 5 4 4 5 4 5 1 9 3 3 4 10 1 5 8 6 6 4 4 3 6 6 4 4 5 7 7 6 7 8 6 9 4 8 8 8 5 7 8 7 9 10 10 5 4 10 8
21 23 25 26 26 25 24 24 24 12 6 7 9 8 7 6 6 8 8 4 1 6 7 3 4 7 5 7 6 10 7 8 6 9 7 10 7 5 9 5 6 7 3 2 0 3 2 2 7 4 2 8 8 8 4 4 4 2 5 4 6 4 6 6 6 5 4 10 9 6 7 8 4 5 4 7 9 9 9 7 6 10 10 8 4 2 8 4
21 23 25 26 26 27 25 24 7 5 3 5 8 7 7 7 6 7 7 5 4 7 3 7 8 6 7 2 5 9 5 5 6 5 7 8 6 7 8 1 5 6 3 5 3 4 7 1 4 4 6 6 8 6 6 4 6 5 4 6 11 8 4 8 10 10 8 6 7 8 6 4 5 8 4 8 4 5 6 6 7 8 10 10 7 6 4 2
20 23 25 24 27 26 25 5 4 10 14 8 8 8 7 7 7 4 5 3 3 3 3 4 5 2 3 6 6 10 6 1 5 6 4 7 9 8 4 2 1 5 8 3 5 2 6 5 5 9 2 14 4 1 6 3 5 6 2 5 11 11 10 11 11 8 7 7 3 3 6 5 4 5 1 9 9 6 2 4 9 9 6 10 8 7 4 6
21 25 24 23 21 22 9 2 10 16 5 8 8 8 7 6 6 7 4 4 3 6 5 6 5 6 3 6 7 4 7 5 2 6 7 5 9 5 10 5 4 4 2 4 2 0 3 3 6 10 1 9 4 5 2 6 7 3 10 6 7 10 11 11 11 9 8 6 9 4 3 5 6 5 5 16 14 11 10 9 7 5 7 8 7 7 4 3
21 24 25 24 24 12 5 8 12 8 9 9 8 7 7 6 6 3 2 2 5 4 4 2 8 2 7 6 7 7 6 3 3 2 2 5 7 6 7 5 6 5 5 2 1 6 7 6 9 7 5 4 4 6 5 6 4 9 10 10 10 11 11 11 9 9 8 7 7 6 6 6 5 4 6 10 9 8 6 4 4 8 7 6 10 9 9 7
19 19 24 24 26 20 6 6 9 9 8 8 7 8 6 6 5 3 3 1 3 2 4 2 1 9 9 5 3 3 4 2 5 3 2 5 2 7 6 6 7 3 0 4 6 6 2 3 9 7 4 4 1 4 6 8 8 8 11 9 10 10 10 9 8 8 8 6 6 8 4 4 6 5 3 5 4 5 2 4 6 11 14 12 10 9 11 7
19 18 22 23 20 4 3 5 8 7 8 8 8 8 7 6 5 4 3 1 2 3 5 3 5 6 4 5 1 7 3 5 2 2 2 8 4 5 5 1 7 9 5 6 5 5 3 4 6 6 6 6 7 11 7 4 8 9 10 10 8 7 5 7 6 6 6 5 4 5 10 3 5 4 8 4 1 7 7 8 7 6 11 10 9 9 9 9
21 19 19 18 6 7 9 6 5 10 8 8 9 8 5 2 3 3 2 4 4 6 5 1 1 4 2 4 1 4 4 6 3 7 2 4 8 4 7 5 6 6 6 5 6 4 2 2 6 4 5 7 4 11 7 7 10 4 6 7 9 8 5 5 5 2 5 3 6 3 2 3 3 1 9 6 5 5 3 1 9 5 6 6 5 8 9 9
22 21 19 11 8 7 6 8 12 9 9 9 8 5 2 2 6 3 3 2 10 5 4 1 1 5 4 1 4 5 3 4 5 6 6 4 5 3 7 6 6 5 5 5 3 8 2 3 4 5 6 4 5 6 2 4 7 6 8 6 5 3 3 3 4 4 5 4 5 4 1 5 5 5 5 6 7 7 4 2 3 8 10 9 8 8 7 7
23 20 25 14 9 5 10 10 8 8 8 8 6 3 4 3 1 4 4 2 3 2 3 7 5 2 6 5 4 6 2 4 2 3 6 2 7 5 2 4 6 4 6 2 3 5 2 4 3 5 2 5 7 8 4 3 5 5 6 3 5 4 3 4 3 3 4 5 1 4 3 7 5 8 4 5 5 6 6 8 5 6 6 8 8 8 7 7
23 20 9 5 5 8 8 9 8 8 8 6 4 5 5 3 4 6 2 5 5 5 7 1 5 9 2 2 3 8 3 1 7 4 5 5 8 6 1 7 7 8 7 6 4 3 4 2 7 5 3 3 8 5 7 7 6 7 9 9 6 6 4 3 3 6 5 6 9 3 4 3 7 4 1 6 7 5 6 11 9 4 4 7 8 8 9 10
27 19 9 8 8 11 13 11 7 4 6 6 5 4 4 4 3 5 5 5 8 6 5 3 7 4 5 3 6 4 6 4 4 7 4 3 4 3 4 5 9 8 7 6 5 6 4 4 6 1 8 3 5 6 4 3 6 1 7 6 2 3 2 4 4 7 6 7 6 3 2 8 8 5 8 6 4 6 4 13 13 9 7 6 6 6 8 9
18 2 6 5 7 8 9 7 4 1 5 6 4 4 2 4 5 5 6 5 1 3 6 7 5 2 2 3 4 4 4 8 4 6 4 3 4 3 0 5 7 9 8 4 6 5 6 1 5 2 3 4 7 6 6 4 4 5 6 4 5 4 6 3 5 4 5 4 5 1 4 9 9 9 7 6 3 5 5 7 10 10 12 10 8 9 10 6
6 9 6 8 10 4 1 3 2 3 5 6 5 2 5 1 5 5 3 5 7 5 4 5 2 7 4 3 3 4 2 4 3 5 2 2 0 5 6 5 5 8 8 7 4 5 6 7 5 3 4 8 4 2 3 5 4 6 4 7 7 7 5 3 4 1 3 4 2 3 5 2 3 5 3 7 6 3 5 5 7 7 9 8 7 7 5 12
8 6 8 10 6 3 3 2 4 4 5 6 3 3 5 4 5 5 2 1 4 3 5 4 3 5 1 3 2 3 6 5 5 4 3 3 1 3 4 3 7 7 6 7 6 4 5 5 4 5 8 8 3 1 4 5 3 5 6 6 6 2 3 2 2 3 4 3 3 6 6 6 8 6 5 6 4 2 0 2 4 6 6 4 4 4 3 7
5 4 5 3 3 2 3 4 3 3 6 6 4 3 3 5 4 8 4 7 1 7 6 7 6 7 4 4 8 4 5 6 7 5 5 4 4 3 7 4 4 4 3 6 5 5 3 3 3 4 3 6 4 3 3 1 6 2 5 6 7 3 5 3 2 5 3 6 4 4 7 4 7 5 9 8 6 4 0 1 2 2 5 3 5 7 8 6
5 4 2 4 3 1 1 1 4 6 5 6 6 6 2 2 5 4 5 4 3 4 4 8 6 5 5 7 1 7 5 6 4 4 5 3 4 3 5 5 6 5 4 3 6 4 3 3 4 2 2 4 3 2 4 3 5 3 2 4 3 3 6 6 3 4 4 5 5 4 5 5 7 6 8 6 4 2 2 1 1 1 4 7 3 6 10 8
6 5 0 2 2 2 2 6 6 7 8 2 2 5 5 7 0 9 1 2 5 3 7 7 5 7 2 4 4 3 5 6 7 2 2 2 4 0 7 7 4 8 7 6 5 6 2 4 5 7 6 2 5 8 4 4 4 5 5 3 4 3 4 3 1 4 4 4 3 4 4 6 4 6 5 6 6 5 4 8 2 2 8 4 3 3 3 3
5 4 3 1 2 0 4 6 5 3 5 5 5 3 5 4 6 3 4 6 5 3 5 1 8 3 9 9 6 7 5 6 6 8 3 6 5 2 6 4 5 4 7 3 4 8 4 4 5 6 5 1 7 5 5 4 2 3 4 3 4 5 5 3 5 4 7 7 2 4 4 3 1 4 5 4 6 4 9 7 3 7 4 6 4 5 5 6
5 4 3 4 3 1 4 7 3 3 3 5 2 3 5 4 6 4 7 3 3 2 7 5 5 3 4 3 4 5 5 6 7 5 6 4 3 6 9 6 3 8 7 4 4 6 5 4 3 7 2 11 13 8 6 6 3 4 5 1 1 2 4 3 3 5 4 8 6 3 4 2 1 3 3 3 3 4 4 4 7 4 3 3 4 6 11 6
7 5 3 4 3 1 5 3 2 1 4 4 6 4 1 6 5 6 7 7 3 6 5 5 4 7 4 2 3 5 5 2 1 8 6 6 3 5 1 1 4 7 6 4 3 5 4 2 5 5 3 3 5 8 3 6 7 0 2 4 4 3 4 5 6 5 4 4 3 2 5 3 2 4 6 5 2 7 6 8 5 3 5 3 3 3 6 8
7 5 4 3 4 4 5 5 7 2 1 1 2 2 3 3 3 6 6 5 3 4 3 5 5 2 2 4 4 5 4 2 6 3 8 4 5 8 9 4 4 7 9 6 6 7 5 5 5 5 6 3 1 2 2 1 1 2 1 1 1 1 0 2 3 1 5 2 4 2 5 2 6 6 8 7 7 5 3 5 3 3 4 6 8 7 1 4
3 3 3 4 4 4 6 4 5 6 1 2 2 3 2 2 3 2 3 4 2 5 4 5 7 6 2 2 5 4 6 4 3 3 6 6 5 5 6 1 8 4 8 7 3 4 4 6 6 7 4 4 5 6 2 0 1 1 5 5 5 2 2 3 2 5 3 4 4 6 6 7 7 7 9 12 7 6 3 3 2 2 3 2 0 3 3 2
5 5 1 2 4 4 6 3 3 3 3 2 1 1 3 3 3 2 3 4 4 5 6 3 5 4 5 4 3 5 4 8 7 6 5 6 5 5 12 10 5 10 4 4 2 4 5 6 5 8 8 7 8 9 5 3 1 4 1 1 4 3 3 1 3 4 6 4 7 2 7 6 9 8 10 9 8 7 3 2 3 2 3 4 3 2 1 1
3 2 3 2 3 0 3 2 5 2 3 1 1 2 5 4 3 1 2 3 5 2 5 1 7 4 3 2 4 3 6 7 5 4 5 5 7 10 8 6 6 7 5 6 5 4 6 4 7 9 9 9 9 8 8 6 5 5 5 5 4 2 2 2 3 8 6 4 7 7 12 12 10 10 11 9 8 6 6 3 4 6 5 6 4 3 2 2
6 4 3 4 4 4 5 8 7 5 2 3 2 2 5 5 5 2 4 1 0 2 2 2 4 7 5 3 4 5 5 5 3 7 5 6 5 6 5 6 6 7 3 4 4 3 5 5 8 8 10 10 10 9 11 10 7 5 6 6 6 4 8 8 7 9 7 6 9 10 12 13 12 12 10 6 8 6 5 6 2 4 4 3 3 3 4 3
4 5 3 2 4 6 2 3 3 3 4 5 1 3 4 4 6 3 2 3 2 3 2 5 7 9 8 5 1 6 5 1 5 4 4 5 7 4 4 4 5 3 4 4 3 1 2 1 7 9 9 9 6 11 15 9 8 8 5 6 3 3 2 1 1 3 5 4 8 10 11 11 11 6 5 4 4 3 3 5 2 4 4 5 5 4 4 4
4 4 3 5 4 5 2 3 4 5 4 5 4 3 4 2 5 0 2 0 3 5 2 5 6 8 6 3 7 8 13 5 2 5 6 9 7 6 5 4 4 6 4 5 3 3 2 5 6 8 7 9 3 2 10 11 5 4 5 1 7 6 3 3 2 3 4 4 2 2 4 4 5 3 4 4 2 4 8 4 3 2 2 4 4 4 3 5
4 4 5 4 5 3 4 3 5 3 4 4 3 4 3 3 3 2 1 1 4 5 5 5 5 5 5 6 6 6 5 6 7 7 9 9 10 10 10 10 10 9 7 5 4 6 4 5 3 2 6 8 8 6 6 9 9 4 4 5 8 6 2 3 4 5 5 4 1 3 4 5 2 3 5 6 9 4 6 8 5 3 2 2 4 3 3 4
Wind_Direction
348 346 344 342 340 340 341 341 340 340 340 338 336 331 329 325 318 315 312 305 300 297 296 295 296 296 298 319 325 322 320 305 299 239 212 59 89 160 11 356 294 329 346 305 281 265 197 206 217 212 216 220 207 237 156 212 248 245 243 246 250 179 258 80 27 78 93 125 88 202 88 52 86 189 99 112 96 86 84 84 87 89 87 95 95 104 147 172
346 345 343 341 340 339 339 339 339 338 339 336 334 331 327 324 318 314 310 307 301 298 296 297 295 297 304 321 321 326 317 297 270 267 71 101 99 58 314 291 309 304 314 276 267 258 215 173 222 192 219 221 212 219 154 208 239 229 229 241 268 46 44 50 9 47 217 110 134 82 179 220 83 279 134 118 98 92 95 95 104 99 96 90 88 90 87 98
343 342 342 340 339 338 338 338 338 338 338 335 332 331 327 322 317 313 309 306 302 299 296 295 298 300 306 322 326 311 303 294 266 105 93 128 143 232 266 270 282 265 263 276 289 292 289 299 177 206 219 223 176 184 187 205 197 227 281 292 212 68 41 50 16 55 40 61 81 343 16 49 75 327 82 110 94 96 94 114 110 100 108 107 102 97 93 92
340 339 339 340 339 339 338 336 337 336 335 333 331 328 327 320 316 311 306 303 300 298 296 295 299 303 308 317 329 310 283 277 264 90 97 157 192 189 235 267 263 266 260 259 267 281 274 261 191 223 262 255 183 169 208 183 221 147 277 265 151 74 87 54 48 27 16 90 98 96 68 334 204 68 243 127 129 96 97 93 113 120 108 104 105 101 103 101
341 339 339 338 338 338 337 337 336 336 334 331 330 327 325 321 314 308 303 298 298 294 293 296 300 306 312 316 303 292 307 273 80 85 87 159 211 222 232 239 256 264 270 276 281 255 249 216 220 252 265 201 218 189 226 177 270 319 329 28 74 104 71 83 63 41 11 37 88 65 219 110 47 110 17 67 74 69 106 117 98 107 118 119 116 111 108 101
340 340 339 339 337 337 337 336 336 335 334 331 329 327 324 321 313 305 299 295 292 291 290 296 302 306 314 306 297 277 282 49 109 93 135 206 211 237 236 233 246 258 273 276 282 159 250 235 252 231 218 256 182 238 134 216 227 270 186 30 43 107 95 52 88 72 170 59 306 229 84 96 146 52 47 67 83 85 78 107 99 93 94 100 108 112 105 100
341 340 339 338 339 336 336 336 335 334 332 331 328 328 325 321 314 305 297 291 286 287 293 298 302 312 316 294 259 236 251 88 142 125 132 220 232 244 247 244 233 240 252 257 246 224 231 224 210 243 237 201 172 241 127 285 261 252 138 82 60 56 84 96 76 252 302 248 186 47 113 217 78 138 69 80 87 94 100 100 108 108 106 107 103 102 100 94
342 340 338 338 339 337 335 335 335 333 332 331 328 328 326 321 314 306 296 288 283 284 295 300 303 314 344 314 284 246 241 90 109 134 156 218 246 242 242 254 255 244 222 240 265 256 197 247 262 245 228 202 136 7 117 232 238 269 95 251 121 21 58 118 88 218 215 17 11 31 284 208 133 90 121 92 104 119 121 126 123 118 113 110 110 108 105 99
342 341 339 338 339 338 335 335 334 334 333 331 331 328 327 321 314 307 297 284 277 282 290 296 307 316 290 271 273 298 85 75 110 135 167 203 255 278 274 277 262 312 44 292 310 52 289 319 274 358 356 330 111 183 162 235 187 3 76 114 75 214 164 95 194 252 91 209 74 196 218 66 80 115 93 114 120 128 126 121 120 115 112 108 107 106 103 103
342 341 340 339 339 338 335 335 333 333 334 331 330 327 325 321 316 306 296 282 277 278 282 297 308 312 291 265 287 275 81 113 152 154 132 265 269 226 250 326 327 332 294 98 308 338 334 350 314 317 317 293 120 131 237 134 352 74 88 176 214 111 225 94 235 173 189 243 163 239 112 135 96 202 123 137 119 125 142 133 130 118 116 116 111 109 105 104
343 341 340 339 339 338 335 334 333 333 334 332 328 327 323 318 315 306 296 284 279 279 282 292 327 302 293 290 281 72 259 151 165 124 128 225 257 272 344 26 334 308 298 179 327 356 329 316 282 321 242 72 236 145 241 92 40 178 232 129 105 95 253 157 236 135 222 173 198 273 162 102 167 220 151 139 150 162 143 140 136 121 109 114 118 107 107 105
342 341 339 338 339 337 334 334 334 332 331 332 326 324 322 315 312 305 298 289 283 287 287 280 288 280 283 281 358 62 231 119 189 140 177 206 244 36 287 238 309 317 324 319 105 320 343 308 279 322 338 107 263 65 217 330 240 98 287 208 131 204 227 130 233 144 225 179 224 132 153 180 139 256 118 142 167 167 154 152 122 114 114 104 99 101 101 101
341 340 338 338 338 337 333 333 334 332 329 330 326 321 319 314 308 304 299 297 276 270 263 257 268 255 291 318 40 111 254 94 314 43 203 228 262 174 240 6 262 305 311 308 351 46 280 293 282 277 294 219 265 171 61 345 253 28 199 243 153 195 212 175 182 210 199 125 219 128 224 178 181 95 127 134 179 178 164 160 134 129 122 121 112 107 107 105
341 339 338 337 338 335 333 331 332 331 328 326 325 320 318 310 300 301 300 285 296 298 283 250 268 276 281 61 118 294 124 188 116 184 210 186 242 191 334 202 256 295 353 306 308 319 282 286 305 286 284 99 356 136 189 180 238 227 178 267 217 176 232 172 201 167 244 106 207 186 256 155 59 54 360 336 171 199 181 172 160 141 119 110 108 105 99 98
340 339 338 337 336 334 332 330 329 329 327 323 322 317 313 305 300 297 296 301 281 298 281 258 238 255 220 87 112 78 341 297 189 233 359 259 283 223 160 223 219 262 302 256 291 163 260 298 280 280 250 71 299 306 203 213 187 247 212 229 158 230 163 185 216 246 228 145 240 238 260 194 136 124 151 219 239 203 205 187 170 142 127 130 122 114 107 101
340 339 338 336 334 334 331 329 326 326 326 323 319 314 308 299 291 292 291 284 296 297 273 265 214 220 274 104 76 159 186 228 74 307 101 275 269 6 47 353 42 246 184 219 252 318 248 263 258 288 304 182 294 271 218 221 231 237 228 217 285 236 136 213 189 245 235 291 160 213 261 103 123 145 163 213 217 204 214 203 154 165 147 140 133 131 107 97
340 339 337 335 334 332 332 327 324 325 326 323 318 306 301 293 287 284 280 276 268 233 245 266 299 188 312 77 150 190 171 63 252 182 208 84 320 0 260 212 231 191 134 5 277 217 213 240 211 247 246 289 133 221 210 234 226 263 169 239 199 261 65 336 5 197 287 225 266 183 243 142 142 165 165 218 237 211 198 206 153 218 151 157 143 126 116 105
340 338 337 334 332 331 330 327 322 324 326 323 313 295 294 291 296 303 274 219 238 246 236 253 270 307 142 187 195 63 164 120 0 55 10 61 344 214 255 301 132 287 359 245 172 260 145 244 205 260 170 207 231 287 258 278 96 205 261 240 331 299 186 181 207 180 228 192 249 269 254 138 157 165 168 199 215 225 211 199 168 166 204 164 151 137 136 118
338 337 335 334 330 330 329 325 320 323 328 321 288 282 254 249 261 241 264 226 217 190 233 179 206 330 43 54 30 128 28 38 206 196 217 357 120 357 298 161 316 310 236 213 133 278 129 262 170 238 295 324 298 261 287 274 233 270 329 313 221 211 223 180 122 94 263 260 237 242 245 180 175 174 189 194 203 258 227 97 113 108 227 53 137 142 139 123
337 335 334 332 331 329 328 323 319 321 335 334 338 304 247 254 196 217 213 231 242 356 34 351 323 120 159 129 99 65 219 153 242 43 267 151 250 232 247 315 234 203 244 269 145 264 250 103 286 17 244 199 208 4 282 334 310 324 263 267 293 321 298 23 283 185 156 271 279 278 255 256 171 178 179 182 195 244 172 136 165 133 120 99 243 161 135 119
336 335 333 331 331 328 327 323 318 319 327 305 289 282 347 10 300 23 332 175 6 19 8 51 16 28 23 297 140 200 221 90 349 72 9 15 300 283 271 215 206 259 272 207 235 68 297 233 238 310 10 7 20 25 284 273 286 266 302 291 300 174 264 172 318 58 296 284 292 285 302 317 134 173 172 172 174 217 177 190 159 148 143 79 354 267 145 127
336 335 332 332 329 329 323 322 316 318 316 267 254 300 42 34 0 334 314 237 158 170 137 73 209 89 163 56 41 341 255 219 125 20 102 312 293 282 119 260 72 277 124 303 340 250 280 14 295 255 301 5 351 286 321 278 263 278 277 284 278 297 346 307 246 181 231 359 294 293 284 261 259 172 157 162 175 200 129 223 212 107 91 104 112 329 177 132
335 333 332 330 330 326 326 314 317 313 314 295 31 18 22 354 341 347 299 290 276 251 236 293 122 125 107 246 102 231 268 340 10 86 5 305 305 211 350 297 30 340 268 194 266 37 10 172 236 318 19 278 278 97 302 314 327 328 297 304 283 304 290 331 116 357 285 246 273 264 269 272 273 339 118 162 159 188 110 195 113 107 86 71 64 135 272 143
334 333 332 330 329 328 320 321 306 293 242 272 49 18 7 355 355 346 321 264 46 60 56 354 354 26 36 338 65 289 341 99 296 36 38 318 12 2 263 19 291 271 353 148 14 14 165 294 19 11 9 300 296 252 313 318 268 241 285 325 306 295 326 319 317 292 212 234 233 283 281 288 268 242 180 167 173 123 118 127 132 90 99 114 142 134 307 157
332 333 331 329 330 326 320 317 301 242 294 277 41 10 3 357 9 342 310 304 220 109 269 135 316 75 40 248 220 263 142 156 71 57 13 348 19 315 40 14 304 12 336 21 280 246 201 83 340 356 300 267 259 337 324 337 303 327 339 343 329 311 269 301 308 300 294 293 231 241 289 271 278 272 230 153 143 106 125 151 171 140 133 141 129 111 303 221
330 330 331 330 330 329 309 303 10 360 304 46 1 8 354 346 18 338 301 271 94 107 156 52 316 59 335 207 255 36 308 108 10 41 268 28 286 313 317 267 349 350 346 73 325 65 35 47 276 294 350 277 300 314 337 59 305 311 82 343 308 332 311 286 275 264 263 274 93 116 278 284 289 272 255 135 160 164 194 170 182 152 157 151 126 117 149 291
330 329 330 329 330 337 328 7 337 301 343 43 6 356 348 349 7 339 310 219 110 20 342 47 268 100 278 29 307 172 234 51 11 57 351 18 343 62 301 357 270 125 343 358 234 122 295 76 305 213 251 337 28 297 349 15 305 336 25 14 327 297 304 305 304 294 277 280 284 163 192 299 281 285 160 145 178 170 172 191 205 191 157 124 134 141 121 198
327 328 328 327 324 335 276 305 309 353 21 9 352 350 341 24 314 317 266 280 56 218 8 327 27 91 265 91 251 336 65 221 284 59 107 359 280 277 269 45 326 18 41 306 280 244 300 305 340 340 7 243 19 22 267 253 313 310 21 342 314 309 305 302 294 292 287 291 270 251 217 258 282 293 266 160 178 168 156 164 153 42 347 173 157 148 123 160
323 325 328 326 322 301 246 245 304 337 4 356 349 341 2 339 295 282 324 17 58 340 132 105 93 251 238 204 231 342 135 22 335 104 292 194 51 338 12 25 330 326 290 280 327 133 153 4 350 0 285 1 95 265 349 12 291 327 336 307 284 270 252 268 287 289 303 315 299 293 349 283 287 310 260 60 101 143 180 227 212 164 207 206 156 130 128 132
322 323 328 331 321 208 187 215 247 317 354 357 347 338 336 297 250 242 236 324 17 118 223 69 259 21 27 318 76 0 307 85 200 188 175 345 21 256 169 226 297 273 212 133 258 71 21 311 20 287 353 3 343 333 352 294 313 314 295 281 279 282 306 306 295 302 309 269 274 36 79 322 290 10 63 109 325 155 191 192 205 161 169 165 154 159 151 130
320 320 323 331 300 352 322 261 25 2 352 353 338 315 297 238 248 246 36 66 203 55 283 16 298 210 208 38 342 243 66 343 1 333 179 196 194 92 22 23 281 313 355 338 327 62 182 165 207 83 17 321 319 270 254 237 199 235 299 320 319 297 258 228 262 239 275 277 96 273 9 77 289 196 77 87 155 159 199 54 162 174 153 161 167 172 160 138
318 317 315 316 269 323 293 327 344 345 349 330 317 290 206 290 211 286 54 163 250 54 345 320 183 309 68 58 81 332 0 324 8 328 354 9 337 329 18 335 9 328 90 300 257 270 318 197 42 145 75 274 310 312 48 289 337 314 309 301 308 318 334 291 215 241 229 268 28 22 322 260 232 44 41 56 30 73 111 131 115 168 183 159 152 161 150 146
316 313 313 283 245 239 252 279 323 325 330 319 301 258 248 254 19 354 50 351 74 314 77 278 350 172 59 302 8 330 63 302 343 337 339 22 328 69 105 21 335 332 314 317 353 352 321 307 238 121 197 57 332 307 350 315 10 323 293 347 304 311 287 296 309 280 313 68 48 263 51 257 301 92 65 72 69 23 48 120 103 93 123 157 164 158 152 172
309 313 306 278 251 246 273 291 293 316 318 313 298 282 271 281 59 287 12 59 101 203 243 64 276 57 45 34 5 0 314 89 311 338 307 28 14 328 172 109 14 353 337 348 354 331 303 191 342 329 70 40 295 9 6 326 311 306 309 306 1 345 1 326 319 347 328 323 323 13 277 320 292 90 341 52 55 72 61 84 95 90 85 115 142 154 154 179
309 295 242 262 247 252 248 253 269 295 307 281 267 285 293 30 356 20 47 10 27 6 12 159 265 40 40 299 30 329 17 332 346 332 12 347 158 262 354 14 35 356 354 314 58 301 325 353 174 35 327 312 336 17 327 351 287 299 330 351 308 5 25 286 331 311 309 322 320 296 339 43 88 89 67 81 77 78 81 107 121 128 109 127 131 154 180 196
307 256 174 251 251 250 221 221 218 189 297 287 281 270 55 23 27 358 40 340 328 14 319 338 346 59 350 314 112 332 92 318 25 332 30 332 8 14 271 24 4 9 348 345 353 329 339 59 288 185 185 81 2 334 22 345 305 18 315 331 1 333 283 317 273 240 305 265 268 311 263 103 93 78 62 52 57 76 96 113 132 132 150 156 173 201 208 190
329 315 254 266 250 209 55 277 279 272 277 284 290 339 351 54 13 22 105 13 30 358 303 311 95 311 28 357 328 353 322 264 349 311 23 354 311 360 39 74 353 351 7 336 324 66 324 320 150 327 306 108 4 337 311 320 355 290 300 10 312 262 331 317 325 351 258 283 291 244 313 237 184 77 145 78 54 29 86 87 122 125 144 160 161 188 129 74
314 292 290 283 310 349 269 26 52 265 271 282 262 309 305 46 28 53 338 241 235 187 298 298 98 283 84 312 33 336 3 311 4 317 320 38 16 310 311 42 70 356 343 324 304 28 358 301 142 122 325 112 126 37 217 183 331 334 342 307 295 1 190 229 219 302 328 294 315 305 306 61 6 38 24 75 52 99 1 109 124 149 142 143 170 119 200 123
275 283 283 178 208 315 16 46 288 283 277 276 242 183 39 39 29 32 357 349 316 345 298 47 316 75 348 8 336 355 24 328 352 29 311 52 307 359 13 350 58 347 273 311 292 10 313 308 288 133 319 43 308 292 7 327 143 312 317 311 36 297 322 293 357 343 291 284 295 308 306 54 42 32 36 44 32 36 296 67 189 147 120 162 202 193 196 157
259 264 221 115 239 210 120 253 278 254 252 262 3 39 306 99 47 42 51 334 19 287 59 296 88 292 19 336 288 355 359 329 327 10 343 327 339 303 71 76 352 327 279 347 313 60 332 1 296 335 275 273 349 306 93 315 339 348 308 349 324 330 314 297 292 313 328 329 304 305 292 94 57 12 27 47 22 72 18 118 225 208 185 214 200 94 76 102
294 280 169 217 329 357 288 255 256 253 235 104 345 18 1 8 207 111 351 123 274 234 329 348 341 358 329 264 5 349 331 316 317 10 348 5 347 334 67 9 357 320 324 309 309 70 325 332 313 305 293 359 166 230 354 355 5 320 338 344 348 305 346 329 330 111 280 277 326 312 308 94 39 36 18 2 5 356 237 143 100 124 254 256 110 94 120 157
282 261 114 187 118 275 298 283 240 264 311 39 63 13 19 332 297 57 229 150 306 5 146 350 65 350 349 12 21 319 347 320 317 315 70 352 89 17 74 12 307 286 297 356 320 60 13 309 284 305 345 187 224 85 26 39 36 352 330 359 7 337 348 320 296 16 346 305 317 254 307 66 300 53 50 31 27 5 358 2 160 167 243 264 150 155 151 113
217 259 95 168 140 252 279 274 280 260 43 39 158 99 171 195 312 56 290 64 312 49 312 353 64 331 77 351 344 321 24 317 320 315 326 94 318 63 74 333 341 294 291 344 342 60 322 261 265 264 148 358 354 58 36 14 329 239 179 139 294 2 359 313 320 333 312 301 303 348 270 107 104 109 101 94 96 69 1 103 330 324 227 211 113 99 106 129
298 310 143 144 155 138 270 292 314 10 56 45 315 72 34 353 338 344 345 35 350 5 337 288 108 106 312 131 323 318 31 316 46 326 330 356 12 79 304 171 16 299 324 45 341 35 295 70 321 309 290 36 357 349 316 333 306 84 14 77 23 349 359 334 311 282 283 298 9 308 296 86 336 178 149 156 93 86 46 9 48 302 316 63 94 83 101 114
303 275 280 148 168 213 276 325 326 341 117 257 219 214 185 208 89 343 333 358 10 339 342 338 7 355 331 43 332 310 286 275 305 317 299 275 343 310 109 286 106 298 69 63 2 331 293 310 317 307 311 298 339 296 355 348 23 1 147 134 171 56 25 322 277 340 272 10 3 282 271 30 13 324 320 339 15 24 26 119 74 319 318 9 28 7 3 160
261 282 160 198 185 215 248 282 290 317 130 224 291 300 286 208 144 139 288 315 16 299 265 329 294 117 292 37 318 338 310 271 187 290 307 337 328 292 127 294 276 86 59 51 336 304 291 304 297 312 303 298 334 330 29 281 345 347 341 324 309 260 217 246 296 264 286 351 316 277 287 322 331 342 328 328 342 356 43 6 336 30 34 18 265 192 207 110
315 279 303 238 156 234 256 182 238 248 318 99 246 297 282 306 9 122 46 303 67 343 329 320 322 343 2 333 334 310 298 305 308 311 322 303 276 279 308 304 70 90 44 345 265 274 279 278 276 264 282 294 251 265 311 304 246 198 222 262 279 314 300 211 249 290 19 324 279 54 351 334 319 324 306 309 319 329 4 4 285 137 189 193 220 215 139 97
251 340 326 41 303 262 226 203 218 191 47 230 338 60 285 261 191 256 213 253 319 14 331 35 305 234 264 46 10 313 311 289 260 263 309 313 329 343 319 350 331 96 346 306 296 262 286 290 294 297 280 272 276 283 272 267 274 271 215 170 165 213 229 191 234 255 283 266 278 313 313 312 311 314 302 301 308 9 35 13 23 2 350 334 319 290 286 293
264 323 308 46 270 334 23 360 357 355 223 232 290 188 260 274 264 202 336 33 128 306 286 337 322 293 359 33 345 308 309 319 2 4 331 326 326 310 288 309 307 311 297 282 294 349 329 271 298 291 298 294 299 299 289 280 274 255 255 225 207 192 201 197 230 261 272 286 289 288 294 296 296 287 300 1 40 11 23 49 349 230 239 220 250 284 295 301
13 3 357 340 274 305 334 304 319 283 246 114 294 234 253 225 267 120 188 267 317 280 82 289 283 328 45 41 275 264 329 326 316 313 335 297 299 290 310 285 305 289 284 290 324 139 229 301 332 310 296 290 308 352 307 279 254 252 248 267 251 171 136 145 325 299 338 312 277 277 275 275 273 306 20 37 10 306 226 235 274 358 336 336 330 308 307 301
328 332 345 308 285 240 182 241 237 233 251 159 230 207 241 259 268 11 50 51 277 278 340 305 336 336 310 314 288 4 12 23 340 294 296 291 292 304 301 297 278 280 278 296 269 270 214 294 343 329 305 294 267 233 271 269 267 264 304 73 114 114 170 199 207 207 177 231 357 319 280 259 298 40 284 293 164 306 303 254 198 192 230 220 241 267 269 291
303 232 217 280 278 51 275 191 247 254 258 221 212 157 193 222 272 87 255 199 280 293 316 326 332 323 276 278 20 23 324 334 319 308 302 294 284 284 281 286 292 298 297 255 227 266 271 294 294 267 286 285 289 267 315 313 295 253 282 219 190 188 210 142 223 172 187 166 197 251 256 272 346 287 299 323 316 285 252 304 312 313 284 246 261 272 306 286